Time,TemperatureF,DewpointF,PressureIn,WindDirection,WindDirectionDegrees,WindSpeedMPH,WindSpeedGustMPH,Humidity,HourlyPrecipIn,Conditions,Clouds,dailyrainin,SoftwareType,DateUTC
2013-01-02 00:11:00,38.0,15.0,-100.00,North,-999,-999.0,-999.0,39,-99.99,,,-99.99,,2013-01-02 08:11:00,
2013-01-02 00:22:00,38.0,15.0,-100.00,North,-999,-999.0,-999.0,39,-99.99,,,-99.99,,2013-01-02 08:22:00,
2013-01-02 01:32:00,36.0,-99.9,-100.00,North,-999,-999.0,-999.0,-999,-99.99,,,-99.99,,2013-01-02 09:32:00,
2013-01-02 01:43:00,36.0,-99.9,-100.00,North,-999,-999.0,-999.0,-999,-99.99,,,-99.99,,2013-01-02 09:43:00,
2013-01-02 01:53:00,36.0,-99.9,-100.00,North,-999,-999.0,-999.0,-999,-99.99,,,-99.99,,2013-01-02 09:53:00,
2013-01-02 02:02:00,36.0,-99.9,-100.00,North,-999,-999.0,-999.0,-999,-99.99,,,-99.99,,2013-01-02 10:02:00,
2013-01-02 02:12:00,36.0,-99.9,-100.00,North,-999,-999.0,-999.0,-999,-99.99,,,-99.99,,2013-01-02 10:12:00,
2013-01-02 02:33:00,36.0,-99.9,-100.00,North,-999,-999.0,-999.0,-999,-99.99,,,-99.99,,2013-01-02 10:33:00,
2013-01-02 02:43:00,36.0,-99.9,-100.00,North,-999,-999.0,-999.0,-999,-99.99,,,-99.99,,2013-01-02 10:43:00,
2013-01-02 02:53:00,36.0,-99.9,-100.00,North,-999,-999.0,-999.0,-999,-99.99,,,-99.99,,2013-01-02 10:53:00,
2013-01-02 03:02:00,36.0,-99.9,-100.00,North,-999,-999.0,-999.0,-999,-99.99,,,-99.99,,2013-01-02 11:02:00,
2013-01-02 03:11:00,38.0,14.0,-100.00,North,-999,-999.0,-999.0,36,-99.99,,,-99.99,,2013-01-02 11:11:00,
2013-01-02 03:22:00,36.0,-99.9,-100.00,North,-999,-999.0,-999.0,-999,-99.99,,,-99.99,,2013-01-02 11:22:00,
2013-01-02 03:43:00,36.0,-99.9,-100.00,North,-999,-999.0,-999.0,-999,-99.99,,,-99.99,,2013-01-02 11:43:00,
2013-01-02 03:53:00,36.0,-99.9,-100.00,North,-999,-999.0,-999.0,-999,-99.99,,,-99.99,,2013-01-02 11:53:00,
2013-01-02 04:03:00,36.0,-99.9,-100.00,North,-999,-999.0,-999.0,-999,-99.99,,,-99.99,,2013-01-02 12:03:00,
2013-01-02 04:12:00,36.0,-99.9,-100.00,North,-999,-999.0,-999.0,-999,-99.99,,,-99.99,,2013-01-02 12:12:00,
2013-01-02 05:13:00,34.0,-99.9,-100.00,North,-999,-999.0,-999.0,-999,-99.99,,,-99.99,,2013-01-02 13:13:00,
2013-01-02 05:22:00,34.0,-99.9,-100.00,North,-999,-999.0,-999.0,-999,-99.99,,,-99.99,,2013-01-02 13:22:00,
2013-01-02 05:33:00,34.0,-99.9,-100.00,North,-999,-999.0,-999.0,-999,-99.99,,,-99.99,,2013-01-02 13:33:00,
2013-01-02 05:43:00,-999.0,-99.9,-100.00,WSW,241,0.0,-999.0,-999,-99.99,,,-99.99,,2013-01-02 13:43:00,
2013-01-02 05:53:00,36.0,-99.9,-100.00,North,-999,-999.0,-999.0,-999,-99.99,,,-99.99,,2013-01-02 13:53:00,
2013-01-02 06:03:00,36.0,-99.9,-100.00,North,-999,-999.0,-999.0,-999,-99.99,,,-99.99,,2013-01-02 14:03:00,
2013-01-02 06:12:00,36.0,14.0,-100.00,North,-999,1.0,-999.0,39,-99.99,,,-99.99,,2013-01-02 14:12:00,
2013-01-02 06:22:00,36.0,14.0,-100.00,North,-999,1.0,-999.0,39,-99.99,,,-99.99,,2013-01-02 14:22:00,
2013-01-02 06:43:00,34.0,-99.9,-100.00,North,-999,-999.0,-999.0,-999,-99.99,,,-99.99,,2013-01-02 14:43:00,
2013-01-02 06:53:00,-999.0,-99.9,-100.00,WSW,247,0.0,-999.0,-999,-99.99,,,-99.99,,2013-01-02 14:53:00,
2013-01-02 07:03:00,-999.0,-99.9,-100.00,WSW,247,0.0,-999.0,-999,-99.99,,,-99.99,,2013-01-02 15:03:00,
2013-01-02 07:13:00,-999.0,-99.9,-100.00,North,-999,1.0,-999.0,-999,-99.99,,,-99.99,,2013-01-02 15:13:00,
2013-01-02 07:23:00,-999.0,-99.9,-100.00,North,-999,1.0,-999.0,-999,-99.99,,,-99.99,,2013-01-02 15:23:00,
2013-01-02 07:32:00,39.0,-99.9,-100.00,North,-999,-999.0,-999.0,-999,-99.99,,,-99.99,,2013-01-02 15:32:00,
2013-01-02 07:33:00,36.0,15.0,-100.00,North,-999,-999.0,-999.0,40,-99.99,,,-99.99,,2013-01-02 15:33:00,
2013-01-02 07:42:00,36.0,15.0,-100.00,North,-999,-999.0,-999.0,40,-99.99,,,-99.99,,2013-01-02 15:42:00,
2013-01-02 07:53:00,39.0,-99.9,-100.00,North,-999,-999.0,-999.0,-999,-99.99,,,-99.99,,2013-01-02 15:53:00,
2013-01-02 08:04:00,39.0,-99.9,-100.00,North,-999,-999.0,-999.0,-999,-99.99,,,-99.99,,2013-01-02 16:04:00,
2013-01-02 08:13:00,39.0,-99.9,-100.00,North,-999,-999.0,-999.0,-999,-99.99,,,-99.99,,2013-01-02 16:13:00,
2013-01-02 08:23:00,39.0,-99.9,-100.00,North,-999,-999.0,-999.0,-999,-99.99,,,-99.99,,2013-01-02 16:23:00,
2013-01-02 09:13:00,42.0,-99.9,-100.00,North,-999,-999.0,-999.0,-999,-99.99,,,-99.99,,2013-01-02 17:13:00,
2013-01-02 09:23:00,42.0,-99.9,-100.00,North,-999,-999.0,-999.0,-999,-99.99,,,-99.99,,2013-01-02 17:23:00,
2013-01-02 09:33:00,44.0,-99.9,-100.00,North,-999,-999.0,-999.0,-999,-99.99,,,-99.99,,2013-01-02 17:33:00,
2013-01-02 11:13:00,52.0,-99.9,-100.00,North,-999,-999.0,-999.0,-999,-99.99,,,-99.99,,2013-01-02 19:13:00,
2013-01-02 11:23:00,52.0,-99.9,-100.00,North,-999,-999.0,-999.0,-999,-99.99,,,-99.99,,2013-01-02 19:23:00,
2013-01-02 11:33:00,-999.0,-99.9,-100.00,North,0,0.0,-999.0,-999,-99.99,,,-99.99,,2013-01-02 19:33:00,
2013-01-02 11:43:00,-999.0,-99.9,-100.00,North,0,0.0,-999.0,-999,-99.99,,,-99.99,,2013-01-02 19:43:00,
2013-01-02 11:53:00,-999.0,-99.9,-100.00,North,0,0.0,-999.0,-999,-99.99,,,-99.99,,2013-01-02 19:53:00,
2013-01-02 12:03:00,-999.0,-99.9,-100.00,North,0,0.0,-999.0,-999,-99.99,,,-99.99,,2013-01-02 20:03:00,
2013-01-02 12:12:00,-999.0,-99.9,-100.00,NNW,348,3.0,-999.0,-999,-99.99,,,-99.99,,2013-01-02 20:12:00,
2013-01-02 12:23:00,-999.0,-99.9,-100.00,NNW,348,3.0,-999.0,-999,-99.99,,,-99.99,,2013-01-02 20:23:00,
2013-01-02 12:33:00,-999.0,-99.9,-100.00,NNW,348,3.0,-999.0,-999,-99.99,,,-99.99,,2013-01-02 20:33:00,
2013-01-02 12:53:00,-999.0,-99.9,-100.00,North,11,3.0,-999.0,-999,-99.99,,,-99.99,,2013-01-02 20:53:00,
2013-01-02 13:03:00,-999.0,-99.9,-100.00,North,354,4.0,-999.0,-999,-99.99,,,-99.99,,2013-01-02 21:03:00,
2013-01-02 13:13:00,-999.0,-99.9,-100.00,North,354,4.0,-999.0,-999,-99.99,,,-99.99,,2013-01-02 21:13:00,
2013-01-02 13:23:00,-999.0,-99.9,-100.00,North,354,4.0,-999.0,-999,-99.99,,,-99.99,,2013-01-02 21:23:00,
2013-01-02 13:33:00,-999.0,-99.9,-100.00,North,354,4.0,-999.0,-999,-99.99,,,-99.99,,2013-01-02 21:33:00,
2013-01-02 13:43:00,56.0,-99.9,-100.00,North,-999,-999.0,-999.0,-999,-99.99,,,-99.99,,2013-01-02 21:43:00,
2013-01-02 13:53:00,-999.0,-99.9,-100.00,North,5,1.0,-999.0,-999,-99.99,,,-99.99,,2013-01-02 21:53:00,
2013-01-02 14:03:00,-999.0,-99.9,-100.00,North,5,1.0,-999.0,-999,-99.99,,,-99.99,,2013-01-02 22:03:00,
2013-01-02 14:13:00,-999.0,-99.9,-100.00,North,-999,1.0,-999.0,-999,-99.99,,,-99.99,,2013-01-02 22:13:00,
2013-01-02 14:22:00,-999.0,-99.9,-100.00,NNW,343,1.0,-999.0,-999,-99.99,,,-99.99,,2013-01-02 22:22:00,
2013-01-02 14:33:00,-999.0,-99.9,-100.00,NNW,343,1.0,-999.0,-999,-99.99,,,-99.99,,2013-01-02 22:33:00,
2013-01-02 14:43:00,58.0,-99.9,-100.00,North,-999,-999.0,-999.0,-999,-99.99,,,-99.99,,2013-01-02 22:43:00,
2013-01-02 14:53:00,58.0,-99.9,-100.00,North,-999,-999.0,-999.0,-999,-99.99,,,-99.99,,2013-01-02 22:53:00,
2013-01-02 15:12:00,59.0,15.0,-100.00,North,-999,1.0,-999.0,17,-99.99,,,-99.99,,2013-01-02 23:12:00,
2013-01-02 15:22:00,59.0,15.0,-100.00,North,-999,1.0,-999.0,17,-99.99,,,-99.99,,2013-01-02 23:22:00,
2013-01-02 15:33:00,-999.0,-99.9,-100.00,NW,320,0.0,-999.0,-999,-99.99,,,-99.99,,2013-01-02 23:33:00,
2013-01-02 15:43:00,-999.0,-99.9,-100.00,NW,320,0.0,-999.0,-999,-99.99,,,-99.99,,2013-01-02 23:43:00,
2013-01-02 15:53:00,-999.0,-99.9,-100.00,NW,320,0.0,-999.0,-999,-99.99,,,-99.99,,2013-01-02 23:53:00,
2013-01-02 16:03:00,-999.0,-99.9,-100.00,NW,320,0.0,-999.0,-999,-99.99,,,-99.99,,2013-01-03 00:03:00,
2013-01-02 16:12:00,-999.0,-99.9,-100.00,North,-999,1.0,-999.0,-999,-99.99,,,-99.99,,2013-01-03 00:12:00,
2013-01-02 16:23:00,-999.0,-99.9,-100.00,North,-999,1.0,-999.0,-999,-99.99,,,-99.99,,2013-01-03 00:23:00,
2013-01-02 16:38:00,-999.0,-99.9,-100.00,North,-999,1.0,-999.0,-999,-99.99,,,-99.99,,2013-01-03 00:38:00,
2013-01-02 16:53:00,53.0,-99.9,-100.00,North,-999,-999.0,-999.0,-999,-99.99,,,-99.99,,2013-01-03 00:53:00,
2013-01-02 17:23:00,49.0,-99.9,-100.00,North,-999,-999.0,-999.0,-999,-99.99,,,-99.99,,2013-01-03 01:23:00,
2013-01-02 17:33:00,49.0,-99.9,-100.00,North,-999,-999.0,-999.0,-999,-99.99,,,-99.99,,2013-01-03 01:33:00,
2013-01-02 18:12:00,49.0,17.0,-100.00,North,-999,-999.0,-999.0,28,-99.99,,,-99.99,,2013-01-03 02:12:00,
2013-01-02 18:23:00,46.0,-99.9,-100.00,North,-999,-999.0,-999.0,-999,-99.99,,,-99.99,,2013-01-03 02:23:00,
2013-01-02 18:33:00,46.0,-99.9,-100.00,North,-999,-999.0,-999.0,-999,-99.99,,,-99.99,,2013-01-03 02:33:00,
2013-01-02 18:43:00,46.0,-99.9,-100.00,North,-999,-999.0,-999.0,-999,-99.99,,,-99.99,,2013-01-03 02:43:00,
2013-01-02 18:53:00,46.0,-99.9,-100.00,North,-999,-999.0,-999.0,-999,-99.99,,,-99.99,,2013-01-03 02:53:00,
2013-01-02 19:12:00,44.0,17.0,-100.00,North,-999,-999.0,-999.0,33,-99.99,,,-99.99,,2013-01-03 03:12:00,
2013-01-02 20:32:00,44.0,17.0,-100.00,North,-999,-999.0,-999.0,33,-99.99,,,-99.99,,2013-01-03 04:32:00,
2013-01-02 20:42:00,44.0,17.0,-100.00,North,-999,-999.0,-999.0,33,-99.99,,,-99.99,,2013-01-03 04:42:00,
2013-01-02 20:52:00,44.0,17.0,-100.00,North,-999,-999.0,-999.0,33,-99.99,,,-99.99,,2013-01-03 04:52:00,
2013-01-02 21:03:00,44.0,17.0,-100.00,North,-999,-999.0,-999.0,33,-99.99,,,-99.99,,2013-01-03 05:03:00,
2013-01-02 21:12:00,44.0,15.0,-100.00,North,-999,-999.0,-999.0,30,-99.99,,,-99.99,,2013-01-03 05:12:00,
2013-01-02 21:22:00,44.0,15.0,-100.00,North,-999,-999.0,-999.0,30,-99.99,,,-99.99,,2013-01-03 05:22:00,
2013-01-02 21:33:00,44.0,15.0,-100.00,North,-999,-999.0,-999.0,30,-99.99,,,-99.99,,2013-01-03 05:33:00,
2013-01-02 21:42:00,44.0,15.0,-100.00,North,-999,-999.0,-999.0,30,-99.99,,,-99.99,,2013-01-03 05:42:00,
2013-01-02 21:53:00,-999.0,-99.9,-100.00,NE,39,0.0,-999.0,-999,-99.99,,,-99.99,,2013-01-03 05:53:00,
2013-01-02 22:03:00,-999.0,-99.9,-100.00,NE,39,0.0,-999.0,-999,-99.99,,,-99.99,,2013-01-03 06:03:00,
2013-01-02 22:12:00,-999.0,-99.9,-100.00,NNE,33,4.0,-999.0,-999,-99.99,,,-99.99,,2013-01-03 06:12:00,
2013-01-02 22:22:00,-999.0,-99.9,-100.00,North,0,5.0,-999.0,-999,-99.99,,,-99.99,,2013-01-03 06:22:00,
2013-01-02 22:33:00,-999.0,-99.9,-100.00,North,0,5.0,-999.0,-999,-99.99,,,-99.99,,2013-01-03 06:33:00,
2013-01-02 22:42:00,-999.0,-99.9,-100.00,North,-999,1.0,-999.0,-999,-99.99,,,-99.99,,2013-01-03 06:42:00,
2013-01-02 22:43:00,-999.0,-99.9,-100.00,North,0,5.0,-999.0,-999,-99.99,,,-99.99,,2013-01-03 06:43:00,
2013-01-02 22:53:00,-999.0,-99.9,-100.00,North,0,5.0,-999.0,-999,-99.99,,,-99.99,,2013-01-03 06:53:00,
2013-01-02 23:02:00,41.0,-99.9,-100.00,North,-999,-999.0,-999.0,-999,-99.99,,,-99.99,,2013-01-03 07:02:00,
2013-01-02 23:12:00,-999.0,-99.9,-100.00,North,-999,1.0,-999.0,-999,-99.99,,,-99.99,,2013-01-03 07:12:00,
2013-01-02 23:22:00,-999.0,-99.9,-100.00,North,-999,1.0,-999.0,-999,-99.99,,,-99.99,,2013-01-03 07:22:00,
2013-01-02 23:33:00,-999.0,-99.9,-100.00,North,-999,1.0,-999.0,-999,-99.99,,,-99.99,,2013-01-03 07:33:00,